Location: Byszew
(52.1813°N, 19.2693°E)
Time: 10:59:50
(UTC+00:00)

SPROUT - Pass Details

Date: 03 July 2022
Orbit: 588 x 598 km, 97.9° (Epoch: 18 August)

Event Time Altitude Azimuth Distance (km) Brightness Sun altitude
Exits shadow 00:37:50 12° 235° (SW) 1,773 ? -11.0°
Maximum altitude 00:40:01 17° 270° (W) 1,510 ? -10.9°
Drops below altitude 10° 00:42:48 10° 312° (NW) 1,928 ? -10.7°
Sets 00:45:38 0° 333° (NNW) 2,837 ? -10.5°
